Location: *
(45.9500°N, 9.0833°E)
Time: 21:11:14
(UTC+00:00)

Altair - Visible Passes

Search period start: 13 June 2021 00:00
Search period end: 23 June 2021 00:00
Orbit: 1501 x 1683 km, 47.2° (Epoch: 12 June)

Date Brightness Start Highest point End Pass type
(mag) Time Alt. Az. Time Alt. Az. Time Alt. Az.
13 Jun 8.1 20:27:18 10° WNW 20:36:48 50° SW 20:45:14 14° SSE visible
13 Jun 9.1 22:34:29 10° W 22:39:48 16° WSW 22:43:14 13° SW visible
14 Jun 8.1 20:02:04 10° WNW 20:11:40 53° SW 20:21:13 11° SE visible
14 Jun 9.1 22:08:48 10° W 22:14:46 18° SW 22:19:13 13° SSW visible
15 Jun 8.0 19:36:51 10° WNW 19:46:30 56° SW 19:56:19 10° SE visible
15 Jun 9.0 21:43:13 10° W 21:49:44 20° SW 21:55:15 12° SSW visible
16 Jun 9.0 21:17:43 10° W 21:24:41 22° SW 21:31:20 11° S visible
17 Jun 9.0 20:52:16 10° W 20:59:37 24° SW 21:07:03 10° S visible
18 Jun 8.9 20:26:51 10° W 20:34:33 26° SW 20:42:20 10° S visible
19 Jun 8.9 20:01:30 10° WNW 20:09:29 28° SW 20:17:34 10° S visible
